RYR593Y LHBP-LECH

Flight info

Callsign RYR593Y
Flight time 2h 35m
Altitude 39000
Route DUZLA DCT GOTAR DCT TIBRO DCT RIDVA DCT BORDI DCT PADKO UM984 DIVKO G7 MAMES M984 BISBA DCT RODRA M985 TORDU
Aircraft B38M/M-SDE1FGHILORVWXY/HB1

Departure

Time 2026-05-07 16:30
Airport Budapest Liszt Ferenc International Airport (LHBP)

Arrival

Time 2026-05-07 19:05
Airport Castellón-Costa Azahar Airport (LECH)
Time Latitude Longitude Altitude Speed Heading
2026-05-07 16:09 47.43655 19.25953 460 ft 0 kts 312°
2026-05-07 16:22 47.43658 19.25948 458 ft 1 kts 313°
2026-05-07 16:22 47.43659 19.25946 459 ft 1 kts 313°
2026-05-07 16:22 47.43642 19.25970 459 ft 4 kts 327°
2026-05-07 16:23 47.43618 19.25983 460 ft 4 kts
2026-05-07 16:23 47.43600 19.25974 458 ft 1 kts 42°
2026-05-07 16:25 47.43604 19.25979 457 ft 3 kts 42°
2026-05-07 16:26 47.43640 19.26027 459 ft 10 kts 39°
2026-05-07 16:26 47.43703 19.26023 460 ft 9 kts 318°
2026-05-07 16:26 47.43734 19.25957 460 ft 7 kts 284°
2026-05-07 16:26 47.43722 19.25897 459 ft 6 kts 232°
2026-05-07 16:27 47.43673 19.25828 460 ft 14 kts 223°
2026-05-07 16:27 47.43587 19.25713 460 ft 18 kts 222°
2026-05-07 16:27 47.43494 19.25589 460 ft 18 kts 222°
2026-05-07 16:27 47.43401 19.25464 457 ft 18 kts 222°
2026-05-07 16:28 47.43305 19.25337 460 ft 19 kts 222°
2026-05-07 16:28 47.43206 19.25203 460 ft 20 kts 223°
2026-05-07 16:28 47.43107 19.25068 459 ft 17 kts 223°
2026-05-07 16:28 47.43082 19.24967 460 ft 4 kts 310°
2026-05-07 16:29 47.43106 19.24928 460 ft 11 kts 313°
2026-05-07 16:29 47.43361 19.24518 455 ft 98 kts 313°
2026-05-07 16:29 47.43983 19.23506 461 ft 169 kts 311°
2026-05-07 16:29 47.44870 19.22109 1008 ft 196 kts 311°
2026-05-07 16:30 47.45811 19.20595 1951 ft 209 kts 310°
2026-05-07 16:30 47.46804 19.18957 2798 ft 222 kts 309°
2026-05-07 16:30 47.47882 19.17179 3481 ft 242 kts 306°
2026-05-07 16:30 47.48666 19.15020 4618 ft 235 kts 288°
2026-05-07 16:31 47.48886 19.12627 5587 ft 239 kts 260°
2026-05-07 16:31 47.48319 19.10379 6723 ft 234 kts 234°
2026-05-07 16:31 47.47162 19.08722 7645 ft 241 kts 212°
2026-05-07 16:31 47.45632 19.07517 8336 ft 258 kts 209°
2026-05-07 16:32 47.43992 19.06273 9110 ft 268 kts 208°
2026-05-07 16:32 47.42302 19.05028 9813 ft 273 kts 207°
2026-05-07 16:32 47.40604 19.03797 9970 ft 271 kts 207°
2026-05-07 16:32 47.38907 19.02581 9999 ft 271 kts 207°
2026-05-07 16:33 47.37212 19.01374 9998 ft 270 kts 207°
2026-05-07 16:33 47.35516 19.00173 9993 ft 270 kts 207°
2026-05-07 16:33 47.33821 18.98977 9993 ft 270 kts 207°
2026-05-07 16:33 47.32115 18.97802 9990 ft 270 kts 206°
2026-05-07 16:34 47.30432 18.96647 9991 ft 270 kts 206°
2026-05-07 16:34 47.28737 18.95488 9992 ft 271 kts 206°
2026-05-07 16:34 47.27030 18.94320 9990 ft 270 kts 206°
2026-05-07 16:34 47.25322 18.93152 9990 ft 271 kts 206°
2026-05-07 16:35 47.23614 18.91985 9998 ft 272 kts 206°
2026-05-07 16:35 47.21854 18.90784 10551 ft 285 kts 206°
2026-05-07 16:35 47.19992 18.89514 11038 ft 304 kts 206°
2026-05-07 16:35 47.18029 18.88177 11632 ft 317 kts 206°
2026-05-07 16:36 47.16015 18.86806 12525 ft 319 kts 205°
2026-05-07 16:36 47.13984 18.85424 13384 ft 324 kts 205°
2026-05-07 16:36 47.11926 18.84024 14167 ft 328 kts 205°
2026-05-07 16:36 47.09876 18.82630 14918 ft 331 kts 205°
2026-05-07 16:37 47.08183 18.81481 15515 ft 333 kts 205°
2026-05-07 16:37 47.06343 18.80232 16147 ft 336 kts 205°
2026-05-07 16:37 47.04215 18.78790 16858 ft 339 kts 205°
2026-05-07 16:37 47.02066 18.77335 17550 ft 343 kts 205°
2026-05-07 16:38 46.99894 18.75846 18231 ft 346 kts 208°
2026-05-07 16:38 46.97974 18.73724 18825 ft 349 kts 227°
2026-05-07 16:38 46.96651 18.70733 19401 ft 355 kts 245°
2026-05-07 16:38 46.96057 18.67258 19996 ft 363 kts 262°
2026-05-07 16:39 46.96046 18.63541 20585 ft 367 kts 267°
2026-05-07 16:39 46.96097 18.59784 21135 ft 371 kts 267°
2026-05-07 16:39 46.96169 18.55993 21709 ft 374 kts 268°
2026-05-07 16:39 46.96253 18.52176 22263 ft 377 kts 268°
2026-05-07 16:40 46.96344 18.48331 22815 ft 380 kts 268°
2026-05-07 16:40 46.96438 18.44468 23353 ft 383 kts 268°
2026-05-07 16:40 46.96534 18.40568 23825 ft 385 kts 268°
2026-05-07 16:40 46.96627 18.36688 24290 ft 387 kts 268°
2026-05-07 16:41 46.96722 18.32749 24750 ft 388 kts 268°
2026-05-07 16:41 46.96815 18.28790 25231 ft 390 kts 267°
2026-05-07 16:41 46.96907 18.24800 25652 ft 393 kts 267°
2026-05-07 16:41 46.96999 18.20799 26114 ft 394 kts 267°
2026-05-07 16:42 46.97089 18.16793 26599 ft 394 kts 266°
2026-05-07 16:42 46.97178 18.12775 27018 ft 396 kts 266°
2026-05-07 16:42 46.97266 18.08751 27438 ft 398 kts 266°
2026-05-07 16:42 46.97353 18.04696 27851 ft 399 kts 266°
2026-05-07 16:43 46.97438 18.00681 28243 ft 401 kts 266°
2026-05-07 16:43 46.97523 17.96587 28637 ft 403 kts 266°
2026-05-07 16:43 46.97607 17.92477 29038 ft 405 kts 266°
2026-05-07 16:43 46.97690 17.88349 29469 ft 407 kts 265°
2026-05-07 16:44 46.97771 17.84198 29790 ft 410 kts 265°
2026-05-07 16:44 46.97852 17.80009 30114 ft 412 kts 265°
2026-05-07 16:44 46.97933 17.75806 30432 ft 414 kts 265°
2026-05-07 16:44 46.98011 17.71607 30725 ft 416 kts 265°
2026-05-07 16:45 46.98087 17.67424 31014 ft 418 kts 265°
2026-05-07 16:45 46.98163 17.63163 31295 ft 419 kts 265°
2026-05-07 16:45 46.98238 17.58892 31600 ft 421 kts 265°
2026-05-07 16:45 46.98312 17.54593 31892 ft 423 kts 265°
2026-05-07 16:46 46.98384 17.50285 32226 ft 423 kts 265°
2026-05-07 16:46 46.98454 17.45981 32649 ft 422 kts 265°
2026-05-07 16:46 46.98523 17.41689 33063 ft 420 kts 265°
2026-05-07 16:46 46.98590 17.37422 33487 ft 419 kts 265°
2026-05-07 16:47 46.98655 17.33181 33898 ft 417 kts 265°
2026-05-07 16:47 46.98717 17.28999 34235 ft 416 kts 266°
2026-05-07 16:47 46.98779 17.24764 34519 ft 416 kts 266°
2026-05-07 16:47 46.98838 17.20522 34783 ft 417 kts 266°
2026-05-07 16:48 46.98897 17.16276 35057 ft 417 kts 266°
2026-05-07 16:48 46.98954 17.12032 35299 ft 417 kts 266°
2026-05-07 16:48 46.99009 17.07780 35553 ft 418 kts 266°
2026-05-07 16:48 46.99063 17.03523 35836 ft 418 kts 266°
2026-05-07 16:49 46.99115 16.99334 36023 ft 420 kts 266°
2026-05-07 16:49 46.99166 16.95050 36223 ft 421 kts 266°
2026-05-07 16:49 46.99215 16.90764 36465 ft 421 kts 266°
2026-05-07 16:49 46.99263 16.86472 36689 ft 421 kts 267°
2026-05-07 16:50 46.99310 16.82185 36921 ft 422 kts 267°
2026-05-07 16:50 46.99354 16.77889 37140 ft 422 kts 267°
2026-05-07 16:50 46.99398 16.73595 37359 ft 422 kts 267°
2026-05-07 16:50 46.99439 16.69293 37547 ft 422 kts 267°
2026-05-07 16:51 46.99479 16.65058 37799 ft 421 kts 267°
2026-05-07 16:51 46.99517 16.60792 38028 ft 421 kts 268°
2026-05-07 16:51 46.99553 16.56505 38235 ft 421 kts 267°
2026-05-07 16:51 46.99589 16.52218 38420 ft 421 kts 268°
2026-05-07 16:52 46.99623 16.47927 38580 ft 421 kts 268°
2026-05-07 16:52 46.99655 16.43637 38715 ft 422 kts 268°
2026-05-07 16:52 46.99687 16.39341 38846 ft 422 kts 268°
2026-05-07 16:53 46.99746 16.30804 38939 ft 422 kts 268°
2026-05-07 16:53 46.99461 16.22306 38909 ft 414 kts 252°
2026-05-07 16:54 46.97536 16.14383 38909 ft 415 kts 248°
2026-05-07 16:54 46.95483 16.06483 38932 ft 416 kts 248°
2026-05-07 16:55 46.93390 15.98668 38925 ft 415 kts 247°
2026-05-07 16:55 46.91272 15.90833 38921 ft 415 kts 247°
2026-05-07 16:56 46.89141 15.82984 38920 ft 415 kts 247°
2026-05-07 16:56 46.85941 15.71241 38930 ft 415 kts 247°
2026-05-07 16:57 46.83816 15.63474 38932 ft 415 kts 247°
2026-05-07 16:57 46.81668 15.55651 38927 ft 416 kts 247°
2026-05-07 16:58 46.79512 15.47822 38929 ft 416 kts 247°
2026-05-07 16:58 46.77350 15.40001 38925 ft 415 kts 247°
2026-05-07 16:59 46.75197 15.32234 38911 ft 416 kts 247°
2026-05-07 16:59 46.73028 15.24434 38916 ft 416 kts 247°
2026-05-07 17:00 46.70848 15.16622 38933 ft 417 kts 247°
2026-05-07 17:00 46.68653 15.08780 38905 ft 419 kts 247°
2026-05-07 17:01 46.66462 15.00983 38910 ft 419 kts 247°
2026-05-07 17:01 46.64254 14.93145 38905 ft 419 kts 247°
2026-05-07 17:02 46.62045 14.85333 38900 ft 418 kts 247°
2026-05-07 17:02 46.59825 14.77505 38929 ft 419 kts 247°
2026-05-07 17:03 46.57602 14.69692 38935 ft 418 kts 247°
2026-05-07 17:03 46.55389 14.61938 38950 ft 417 kts 247°
2026-05-07 17:04 46.53168 14.54181 38945 ft 417 kts 247°
2026-05-07 17:04 46.50939 14.46421 38977 ft 417 kts 247°
2026-05-07 17:05 46.48699 14.38646 38958 ft 417 kts 247°
2026-05-07 17:05 46.46454 14.30881 38946 ft 417 kts 247°
2026-05-07 17:06 46.44224 14.23191 38957 ft 418 kts 247°
2026-05-07 17:06 46.41970 14.15442 38974 ft 417 kts 247°
2026-05-07 17:07 46.39713 14.07707 38956 ft 416 kts 247°
2026-05-07 17:07 46.37451 13.99982 38954 ft 417 kts 247°
2026-05-07 17:08 46.35198 13.92308 38964 ft 417 kts 247°
2026-05-07 17:08 46.32928 13.84601 38976 ft 417 kts 247°
2026-05-07 17:09 46.30653 13.76901 38965 ft 415 kts 246°
2026-05-07 17:09 46.28378 13.69222 38990 ft 416 kts 247°
2026-05-07 17:10 46.26108 13.61581 39003 ft 417 kts 247°
2026-05-07 17:10 46.23823 13.53907 38950 ft 416 kts 246°
2026-05-07 17:11 46.21440 13.46305 38965 ft 416 kts 242°
2026-05-07 17:11 46.18769 13.38885 38986 ft 417 kts 243°
2026-05-07 17:12 46.16143 13.31484 38973 ft 412 kts 243°
2026-05-07 17:12 46.13557 13.24200 38977 ft 412 kts 243°
2026-05-07 17:13 46.10941 13.16848 38973 ft 412 kts 243°
2026-05-07 17:13 46.08319 13.09501 38993 ft 412 kts 243°
2026-05-07 17:14 46.05694 13.02166 38995 ft 412 kts 243°
2026-05-07 17:14 46.03079 12.94876 38993 ft 412 kts 243°
2026-05-07 17:15 46.00450 12.87571 38993 ft 412 kts 243°
2026-05-07 17:15 45.97811 12.80253 38993 ft 412 kts 243°
2026-05-07 17:16 45.95166 12.72943 39005 ft 412 kts 243°
2026-05-07 17:16 45.92526 12.65665 38995 ft 414 kts 243°
2026-05-07 17:17 45.89869 12.58358 38991 ft 414 kts 243°
2026-05-07 17:17 45.87199 12.51038 38976 ft 413 kts 243°
2026-05-07 17:18 45.84540 12.43766 38984 ft 411 kts 243°
2026-05-07 17:18 45.81881 12.36513 38978 ft 411 kts 243°
2026-05-07 17:19 45.79235 12.29317 38972 ft 411 kts 243°
2026-05-07 17:19 45.76571 12.22090 38973 ft 412 kts 243°
2026-05-07 17:20 45.73887 12.14829 38971 ft 413 kts 243°
2026-05-07 17:20 45.71199 12.07576 38965 ft 412 kts 242°
2026-05-07 17:21 45.68534 12.00403 38991 ft 411 kts 242°
2026-05-07 17:21 45.65854 11.93209 38991 ft 411 kts 242°
2026-05-07 17:22 45.63163 11.86006 38985 ft 411 kts 242°
2026-05-07 17:22 45.60487 11.78860 38965 ft 411 kts 242°
2026-05-07 17:23 45.57784 11.71663 38960 ft 412 kts 242°
2026-05-07 17:23 45.55080 11.64480 38954 ft 411 kts 242°
2026-05-07 17:24 45.52376 11.57318 38960 ft 410 kts 242°
2026-05-07 17:24 45.49665 11.50156 38968 ft 410 kts 242°
2026-05-07 17:25 45.46971 11.43056 38963 ft 410 kts 242°
2026-05-07 17:25 45.44254 11.35915 38970 ft 410 kts 242°
2026-05-07 17:26 45.41540 11.28799 38968 ft 410 kts 242°
2026-05-07 17:26 45.38818 11.21681 38962 ft 408 kts 242°
2026-05-07 17:27 45.36118 11.14639 38968 ft 408 kts 242°
2026-05-07 17:27 45.33393 11.07551 38967 ft 408 kts 242°
2026-05-07 17:28 45.30671 11.00487 38966 ft 408 kts 242°
2026-05-07 17:28 45.27939 10.93418 38967 ft 408 kts 242°
2026-05-07 17:29 45.25221 10.86396 38956 ft 408 kts 242°
2026-05-07 17:29 45.22492 10.79363 38980 ft 406 kts 242°
2026-05-07 17:30 45.19763 10.72349 38984 ft 406 kts 242°
2026-05-07 17:30 45.17037 10.65349 38983 ft 406 kts 242°
2026-05-07 17:31 45.14382 10.58284 38980 ft 406 kts 242°
2026-05-07 17:31 45.11739 10.51264 38984 ft 406 kts 242°
2026-05-07 17:32 45.09077 10.44213 38976 ft 406 kts 242°
2026-05-07 17:32 45.06872 10.38386 38984 ft 405 kts 242°
2026-05-07 17:33 45.03755 10.30172 38976 ft 406 kts 242°
2026-05-07 17:33 45.01100 10.23193 38974 ft 406 kts 242°
2026-05-07 17:34 44.98422 10.16173 38972 ft 406 kts 242°
2026-05-07 17:34 44.95744 10.09169 38967 ft 406 kts 242°
2026-05-07 17:35 44.93060 10.02167 38950 ft 405 kts 242°
2026-05-07 17:35 44.90398 9.95242 38947 ft 404 kts 242°
2026-05-07 17:36 44.87715 9.88280 38944 ft 404 kts 242°
2026-05-07 17:36 44.85031 9.81330 38939 ft 404 kts 242°
2026-05-07 17:37 44.82346 9.74397 38943 ft 404 kts 242°
2026-05-07 17:37 44.79671 9.67506 38947 ft 403 kts 242°
2026-05-07 17:38 44.76976 9.60579 38956 ft 403 kts 242°
2026-05-07 17:38 44.74289 9.53693 38949 ft 401 kts 242°
2026-05-07 17:39 44.71601 9.46821 38958 ft 402 kts 242°
2026-05-07 17:39 44.68899 9.39929 38977 ft 403 kts 242°
2026-05-07 17:40 44.66210 9.33087 38979 ft 402 kts 242°
2026-05-07 17:40 44.63499 9.26202 38966 ft 403 kts 242°
2026-05-07 17:41 44.60779 9.19319 38984 ft 402 kts 242°
2026-05-07 17:41 44.58081 9.12504 38992 ft 400 kts 242°
2026-05-07 17:42 44.55387 9.05716 38999 ft 401 kts 241°
2026-05-07 17:42 44.52673 8.98894 38992 ft 401 kts 241°
2026-05-07 17:43 44.49953 8.92075 38993 ft 401 kts 241°
2026-05-07 17:43 44.47215 8.85292 38989 ft 401 kts 240°
2026-05-07 17:44 44.44410 8.78595 38986 ft 401 kts 240°
2026-05-07 17:44 44.41593 8.71860 38989 ft 401 kts 240°
2026-05-07 17:45 44.38769 8.65119 38997 ft 402 kts 240°
2026-05-07 17:45 44.35939 8.58380 38993 ft 402 kts 240°
2026-05-07 17:46 44.33112 8.51665 38992 ft 402 kts 240°
2026-05-07 17:46 44.30293 8.44984 38981 ft 402 kts 240°
2026-05-07 17:47 44.27462 8.38292 38984 ft 399 kts 240°
2026-05-07 17:47 44.24637 8.31627 38999 ft 400 kts 240°
2026-05-07 17:48 44.21806 8.24963 38992 ft 400 kts 239°
2026-05-07 17:48 44.18985 8.18340 38969 ft 401 kts 239°
2026-05-07 17:49 44.16131 8.11654 38996 ft 401 kts 239°
2026-05-07 17:49 44.13285 8.05003 38964 ft 400 kts 239°
2026-05-07 17:50 44.10443 7.98376 38986 ft 398 kts 239°
2026-05-07 17:50 44.07600 7.91764 39003 ft 400 kts 239°
2026-05-07 17:51 44.04762 7.85177 38979 ft 400 kts 239°
2026-05-07 17:51 44.01900 7.78551 39005 ft 400 kts 239°
2026-05-07 17:52 43.99036 7.71935 38967 ft 399 kts 239°
2026-05-07 17:52 43.96175 7.65338 38980 ft 400 kts 239°
2026-05-07 17:53 43.93336 7.58810 38997 ft 396 kts 239°
2026-05-07 17:53 43.90474 7.52245 39008 ft 399 kts 239°
2026-05-07 17:54 43.87599 7.45662 38985 ft 399 kts 239°
2026-05-07 17:54 43.85211 7.40205 38980 ft 399 kts 239°
2026-05-07 17:55 43.81866 7.32580 38962 ft 399 kts 239°
2026-05-07 17:55 43.78983 7.26026 38984 ft 398 kts 238°
2026-05-07 17:56 43.76096 7.19475 38957 ft 398 kts 238°
2026-05-07 17:56 43.73705 7.14062 38965 ft 397 kts 238°
2026-05-07 17:57 43.70817 7.07539 38969 ft 398 kts 238°
2026-05-07 17:57 43.67463 6.99978 38969 ft 397 kts 238°
2026-05-07 17:58 43.65059 6.94571 38967 ft 398 kts 238°
2026-05-07 17:58 43.62161 6.88069 38946 ft 398 kts 238°
2026-05-07 17:59 43.59264 6.81582 38961 ft 397 kts 238°
2026-05-07 17:59 43.55896 6.74058 38967 ft 397 kts 238°
2026-05-07 18:00 43.53458 6.68624 38966 ft 397 kts 238°
2026-05-07 18:00 43.50567 6.62194 38966 ft 397 kts 238°
2026-05-07 18:01 43.47655 6.55731 38944 ft 397 kts 238°
2026-05-07 18:01 43.44738 6.49271 38928 ft 397 kts 238°
2026-05-07 18:02 43.40356 6.39594 38942 ft 399 kts 238°
2026-05-07 18:03 43.37442 6.33176 38939 ft 398 kts 238°
2026-05-07 18:03 43.34503 6.26718 38940 ft 398 kts 238°
2026-05-07 18:04 43.31564 6.20273 38940 ft 398 kts 237°
2026-05-07 18:04 43.28640 6.13877 38960 ft 399 kts 237°
2026-05-07 18:05 43.25694 6.07444 38965 ft 398 kts 237°
2026-05-07 18:05 43.22732 6.00991 38969 ft 400 kts 237°
2026-05-07 18:06 43.19768 5.94549 38965 ft 399 kts 237°
2026-05-07 18:06 43.16803 5.88120 38964 ft 400 kts 237°
2026-05-07 18:07 43.13830 5.81686 38964 ft 400 kts 237°
2026-05-07 18:07 43.10876 5.75306 38965 ft 400 kts 237°
2026-05-07 18:08 43.07896 5.68887 38961 ft 400 kts 237°
2026-05-07 18:08 43.04912 5.62470 38966 ft 400 kts 237°
2026-05-07 18:09 43.03141 5.58669 38965 ft 400 kts 237°
2026-05-07 18:09 43.00166 5.52295 38966 ft 400 kts 237°
2026-05-07 18:10 42.97171 5.45891 38968 ft 400 kts 237°
2026-05-07 18:10 42.94169 5.39488 38969 ft 400 kts 237°
2026-05-07 18:11 42.91165 5.33094 38982 ft 400 kts 237°
2026-05-07 18:11 42.88175 5.26743 38964 ft 401 kts 237°
2026-05-07 18:12 42.85161 5.20353 38965 ft 401 kts 237°
2026-05-07 18:12 42.82142 5.13968 38966 ft 401 kts 236°
2026-05-07 18:13 42.79119 5.07589 38966 ft 401 kts 236°
2026-05-07 18:13 42.76119 5.01271 38966 ft 401 kts 236°
2026-05-07 18:14 42.73091 4.94908 38982 ft 401 kts 236°
2026-05-07 18:14 42.70048 4.88527 38970 ft 403 kts 236°
2026-05-07 18:15 42.66995 4.82138 38966 ft 403 kts 236°
2026-05-07 18:15 42.63958 4.75797 38966 ft 403 kts 236°
2026-05-07 18:16 42.60905 4.69435 38966 ft 403 kts 236°
2026-05-07 18:16 42.57842 4.63067 38966 ft 403 kts 236°
2026-05-07 18:17 42.54773 4.56700 38979 ft 403 kts 236°
2026-05-07 18:17 42.51711 4.50362 38960 ft 405 kts 236°
2026-05-07 18:18 42.48630 4.43995 38963 ft 404 kts 236°
2026-05-07 18:18 42.45541 4.37628 38966 ft 404 kts 236°
2026-05-07 18:19 42.42450 4.31270 38966 ft 404 kts 236°
2026-05-07 18:19 42.39377 4.24961 38966 ft 404 kts 236°
2026-05-07 18:20 42.36280 4.18617 38981 ft 405 kts 236°
2026-05-07 18:20 42.33166 4.12251 38953 ft 408 kts 236°
2026-05-07 18:21 42.30033 4.05861 38967 ft 407 kts 236°
2026-05-07 18:21 42.26924 3.99532 38969 ft 407 kts 236°
2026-05-07 18:22 42.23789 3.93164 38971 ft 407 kts 236°
2026-05-07 18:22 42.20657 3.86817 38972 ft 407 kts 236°
2026-05-07 18:23 42.17515 3.80461 38983 ft 407 kts 236°
2026-05-07 18:23 42.14352 3.74077 38975 ft 411 kts 236°
2026-05-07 18:24 42.11197 3.67723 38966 ft 410 kts 236°
2026-05-07 18:24 42.07977 3.61399 38969 ft 410 kts 234°
2026-05-07 18:25 42.04653 3.55152 38969 ft 410 kts 234°
2026-05-07 18:25 42.01332 3.48899 38971 ft 410 kts 234°
2026-05-07 18:26 41.98036 3.42702 38969 ft 410 kts 234°
2026-05-07 18:26 41.94710 3.36462 38969 ft 410 kts 234°
2026-05-07 18:27 41.91394 3.30253 38963 ft 410 kts 234°
2026-05-07 18:27 41.88094 3.24085 38967 ft 409 kts 234°
2026-05-07 18:28 41.84767 3.17880 38966 ft 409 kts 234°
2026-05-07 18:28 41.81438 3.11685 38966 ft 410 kts 234°
2026-05-07 18:29 41.78112 3.05507 38969 ft 410 kts 234°
2026-05-07 18:29 41.74789 2.99349 38975 ft 411 kts 234°
2026-05-07 18:30 41.71436 2.93145 38965 ft 412 kts 235°
2026-05-07 18:30 41.68077 2.86944 38968 ft 411 kts 234°
2026-05-07 18:31 41.64711 2.80743 38824 ft 412 kts 234°
2026-05-07 18:31 41.63037 2.77664 38611 ft 410 kts 234°
2026-05-07 18:31 41.61361 2.74586 38374 ft 409 kts 234°
2026-05-07 18:31 41.59709 2.71553 38134 ft 409 kts 234°
2026-05-07 18:32 41.58039 2.68490 37894 ft 408 kts 234°
2026-05-07 18:32 41.56368 2.65428 37679 ft 407 kts 234°
2026-05-07 18:32 41.54698 2.62373 37438 ft 407 kts 234°
2026-05-07 18:32 41.53033 2.59328 37201 ft 405 kts 234°
2026-05-07 18:33 41.51376 2.56301 36960 ft 403 kts 233°
2026-05-07 18:33 41.49734 2.53305 36729 ft 400 kts 233°
2026-05-07 18:33 41.48098 2.50323 36498 ft 397 kts 233°
2026-05-07 18:33 41.46470 2.47358 36277 ft 395 kts 233°
2026-05-07 18:34 41.44875 2.44456 36052 ft 392 kts 232°
2026-05-07 18:34 41.43268 2.41535 35827 ft 390 kts 232°
2026-05-07 18:34 41.41669 2.38631 35611 ft 387 kts 232°
2026-05-07 18:34 41.40084 2.35756 35391 ft 384 kts 232°
2026-05-07 18:35 41.38509 2.32900 35177 ft 381 kts 232°
2026-05-07 18:35 41.36941 2.30061 34967 ft 379 kts 231°
2026-05-07 18:35 41.35384 2.27244 34770 ft 377 kts 231°
2026-05-07 18:35 41.33843 2.24458 34556 ft 374 kts 231°
2026-05-07 18:36 41.32304 2.21678 34345 ft 372 kts 230°
2026-05-07 18:36 41.30791 2.18948 34140 ft 371 kts 230°
2026-05-07 18:36 41.29261 2.16191 33959 ft 370 kts 230°
2026-05-07 18:36 41.27738 2.13447 33719 ft 368 kts 230°
2026-05-07 18:37 41.26220 2.10714 33472 ft 367 kts 230°
2026-05-07 18:37 41.24702 2.07986 33227 ft 367 kts 229°
2026-05-07 18:37 41.23187 2.05265 32994 ft 366 kts 229°
2026-05-07 18:37 41.21675 2.02550 32755 ft 365 kts 229°
2026-05-07 18:38 41.20171 1.99853 32518 ft 365 kts 229°
2026-05-07 18:38 41.18682 1.97186 32286 ft 364 kts 229°
2026-05-07 18:38 41.17175 1.94489 32052 ft 364 kts 229°
2026-05-07 18:38 41.15670 1.91797 31818 ft 363 kts 229°
2026-05-07 18:39 41.14166 1.89108 31606 ft 363 kts 229°
2026-05-07 18:39 41.12662 1.86421 31358 ft 362 kts 229°
2026-05-07 18:39 41.11163 1.83747 31126 ft 362 kts 228°
2026-05-07 18:39 41.09658 1.81062 30898 ft 362 kts 228°
2026-05-07 18:40 41.08155 1.78385 30673 ft 362 kts 228°
2026-05-07 18:40 41.06652 1.75708 30448 ft 362 kts 228°
2026-05-07 18:40 41.05157 1.73098 30224 ft 359 kts 224°
2026-05-07 18:40 41.03475 1.70690 29939 ft 354 kts 222°
2026-05-07 18:41 41.01813 1.68284 29389 ft 353 kts 223°
2026-05-07 18:41 41.00172 1.65884 28951 ft 350 kts 223°
2026-05-07 18:41 40.98551 1.63503 28559 ft 346 kts 224°
2026-05-07 18:41 40.96955 1.61155 28235 ft 340 kts 224°
2026-05-07 18:42 40.95402 1.58871 28122 ft 329 kts 224°
2026-05-07 18:42 40.93882 1.56635 27991 ft 329 kts 224°
2026-05-07 18:42 40.92342 1.54371 27737 ft 339 kts 224°
2026-05-07 18:42 40.90756 1.52039 27378 ft 343 kts 224°
2026-05-07 18:43 40.89156 1.49690 26962 ft 344 kts 225°
2026-05-07 18:43 40.87563 1.47352 26559 ft 343 kts 225°
2026-05-07 18:43 40.85966 1.45020 26150 ft 341 kts 225°
2026-05-07 18:43 40.84371 1.42706 25729 ft 340 kts 225°
2026-05-07 18:44 40.82788 1.40409 25364 ft 336 kts 225°
2026-05-07 18:44 40.81219 1.38134 24997 ft 334 kts 226°
2026-05-07 18:44 40.79682 1.35907 24638 ft 332 kts 226°
2026-05-07 18:44 40.78134 1.33666 24271 ft 329 kts 226°
2026-05-07 18:45 40.76595 1.31440 23913 ft 327 kts 226°
2026-05-07 18:45 40.75067 1.29231 23557 ft 325 kts 227°
2026-05-07 18:45 40.73544 1.27032 23139 ft 323 kts 227°
2026-05-07 18:45 40.72037 1.24856 22764 ft 320 kts 227°
2026-05-07 18:46 40.70548 1.22707 22382 ft 317 kts 227°
2026-05-07 18:46 40.69065 1.20566 22021 ft 315 kts 227°
2026-05-07 18:46 40.67620 1.18483 21716 ft 310 kts 227°
2026-05-07 18:46 40.66172 1.16395 21396 ft 307 kts 228°
2026-05-07 18:47 40.64723 1.14308 21083 ft 312 kts 227°
2026-05-07 18:47 40.63247 1.12184 20747 ft 317 kts 227°
2026-05-07 18:47 40.61758 1.10041 20414 ft 318 kts 228°
2026-05-07 18:47 40.60266 1.07897 20078 ft 317 kts 228°
2026-05-07 18:48 40.58775 1.05756 19745 ft 317 kts 228°
2026-05-07 18:48 40.57290 1.03623 19411 ft 316 kts 228°
2026-05-07 18:48 40.55811 1.01502 19078 ft 315 kts 229°
2026-05-07 18:48 40.54354 0.99415 18696 ft 315 kts 229°
2026-05-07 18:49 40.52877 0.97303 18374 ft 313 kts 229°
2026-05-07 18:49 40.51411 0.95207 18033 ft 310 kts 229°
2026-05-07 18:49 40.49957 0.93133 17686 ft 307 kts 229°
2026-05-07 18:49 40.48520 0.91081 17351 ft 304 kts 229°
2026-05-07 18:50 40.47095 0.89049 17034 ft 300 kts 229°
2026-05-07 18:50 40.45687 0.87041 16724 ft 298 kts 228°
2026-05-07 18:50 40.44267 0.85018 16395 ft 304 kts 228°
2026-05-07 18:50 40.42839 0.82985 16072 ft 309 kts 228°
2026-05-07 18:51 40.41378 0.80906 15748 ft 311 kts 228°
2026-05-07 18:51 40.39909 0.78817 15429 ft 311 kts 228°
2026-05-07 18:51 40.38443 0.76735 15101 ft 310 kts 228°
2026-05-07 18:51 40.36994 0.74677 14778 ft 307 kts 228°
2026-05-07 18:52 40.35549 0.72627 14452 ft 305 kts 228°
2026-05-07 18:52 40.34112 0.70591 14132 ft 303 kts 228°
2026-05-07 18:52 40.32701 0.68590 13812 ft 302 kts 228°
2026-05-07 18:52 40.31278 0.66575 13456 ft 301 kts 228°
2026-05-07 18:53 40.29863 0.64573 13110 ft 299 kts 228°
2026-05-07 18:53 40.28460 0.62587 12793 ft 296 kts 228°
2026-05-07 18:53 40.27064 0.60610 12473 ft 294 kts 229°
2026-05-07 18:53 40.26002 0.58333 12101 ft 296 kts 252°
2026-05-07 18:54 40.25638 0.55681 11778 ft 297 kts 264°
2026-05-07 18:54 40.25394 0.52973 11503 ft 301 kts 264°
2026-05-07 18:54 40.25160 0.50239 11191 ft 302 kts 264°
2026-05-07 18:54 40.24939 0.47554 10882 ft 303 kts 264°
2026-05-07 18:55 40.24721 0.44811 10565 ft 303 kts 264°
2026-05-07 18:55 40.24505 0.42069 10280 ft 302 kts 264°
2026-05-07 18:55 40.24294 0.39371 10133 ft 294 kts 264°
2026-05-07 18:55 40.24089 0.36747 9958 ft 287 kts 264°
2026-05-07 18:56 40.23889 0.34203 9654 ft 285 kts 264°
2026-05-07 18:56 40.23687 0.31628 9309 ft 284 kts 264°
2026-05-07 18:56 40.23486 0.29062 9000 ft 282 kts 264°
2026-05-07 18:56 40.23285 0.26514 8696 ft 280 kts 264°
2026-05-07 18:57 40.23087 0.24017 8398 ft 278 kts 264°
2026-05-07 18:57 40.22888 0.21507 8098 ft 276 kts 264°
2026-05-07 18:57 40.22690 0.19014 7810 ft 275 kts 264°
2026-05-07 18:57 40.22492 0.16533 7516 ft 274 kts 264°
2026-05-07 18:58 40.22295 0.14076 7223 ft 272 kts 264°
2026-05-07 18:58 40.22098 0.11616 6925 ft 271 kts 265°
2026-05-07 18:58 40.22055 0.09157 6648 ft 269 kts 268°
2026-05-07 18:58 40.21957 0.06727 6589 ft 269 kts 266°
2026-05-07 18:59 40.21841 0.04278 6595 ft 271 kts 266°
2026-05-07 18:59 40.21725 0.01851 6641 ft 270 kts 266°
2026-05-07 18:59 40.21608 -0.00601 6582 ft 270 kts 266°
2026-05-07 18:59 40.21492 -0.03045 6354 ft 268 kts 266°
2026-05-07 19:00 40.21354 -0.05443 5951 ft 261 kts 260°
2026-05-07 19:00 40.20720 -0.07617 5532 ft 253 kts 239°
2026-05-07 19:00 40.19637 -0.09380 5012 ft 249 kts 216°
2026-05-07 19:00 40.18066 -0.10237 4466 ft 245 kts 185°
2026-05-07 19:01 40.16412 -0.09954 3941 ft 241 kts 155°
2026-05-07 19:01 40.15121 -0.08671 3609 ft 229 kts 126°
2026-05-07 19:01 40.14547 -0.06912 3446 ft 203 kts 96°
2026-05-07 19:01 40.14764 -0.05214 3266 ft 181 kts 62°
2026-05-07 19:02 40.15507 -0.03949 3113 ft 174 kts 52°
2026-05-07 19:02 40.16229 -0.02679 2906 ft 174 kts 56°
2026-05-07 19:02 40.16896 -0.01398 2731 ft 163 kts 57°
2026-05-07 19:02 40.17501 -0.00221 2581 ft 149 kts 56°
2026-05-07 19:03 40.18066 0.00875 2379 ft 142 kts 55°
2026-05-07 19:03 40.18617 0.01940 2175 ft 141 kts 56°
2026-05-07 19:03 40.19163 0.03001 2007 ft 140 kts 56°
2026-05-07 19:03 40.19737 0.04039 1728 ft 141 kts 53°
2026-05-07 19:04 40.20296 0.05052 1406 ft 137 kts 61°
2026-05-07 19:04 40.20808 0.06118 1217 ft 138 kts 58°
2026-05-07 19:04 40.21270 0.07066 1193 ft 95 kts 58°
2026-05-07 19:04 40.21526 0.07589 1193 ft 57 kts 57°
2026-05-07 19:05 40.21639 0.07817 1193 ft 14 kts 58°
2026-05-07 19:05 40.21685 0.07934 1193 ft 16 kts 73°
2026-05-07 19:05 40.21720 0.07975 1193 ft 4 kts 319°
2026-05-07 19:05 40.21712 0.07944 1193 ft 7 kts 233°
2026-05-07 19:06 40.21654 0.07846 1193 ft 20 kts 235°
2026-05-07 19:06 40.21466 0.07465 1193 ft 28 kts 237°
2026-05-07 19:06 40.21360 0.07247 1193 ft 29 kts 237°
2026-05-07 19:07 40.21246 0.07018 1193 ft 31 kts 236°
2026-05-07 19:07 40.21127 0.06778 1193 ft 32 kts 237°
2026-05-07 19:07 40.21004 0.06525 1193 ft 34 kts 237°
2026-05-07 19:07 40.20875 0.06265 1193 ft 34 kts 237°
2026-05-07 19:08 40.20738 0.06074 1193 ft 16 kts 185°
2026-05-07 19:08 40.20640 0.06145 1193 ft 17 kts 128°
2026-05-07 19:08 40.20661 0.06252 1193 ft 13 kts 57°
2026-05-07 19:08 40.20705 0.06366 1193 ft 15 kts 93°
2026-05-07 19:09 40.20637 0.06465 1193 ft 15 kts 105°
2026-05-07 19:09 40.20671 0.06564 1193 ft 1 kts 78°
2026-05-07 19:09 40.20661 0.06586 1193 ft 6 kts 138°
2026-05-07 19:09 40.20620 0.06621 1193 ft 4 kts 147°
2026-05-07 19:10 40.20607 0.06631 1193 ft 0 kts 147°
2026-05-07 19:10 40.20610 0.06628 1193 ft 0 kts 147°
2026-05-07 19:10 40.20610 0.06629 1193 ft 0 kts 147°